Flag for Germany Weather past 2 weeks in Trier, Rhineland-Palatinate, Germany

Now
51 °F

Passing clouds.


Feels Like: 50 °F
Forecast: 32 / 62 °F
Wind: 3 mph from Northeast

Location: Trier-Petrisberg


UV Index: 3 (Moderate)

Visibility: 25 mi


Pressure: 30.40 "Hg

Humidity: 48%

Dew point: 32 °F

Location of TrierLocation

Historic Weather in Trier

°F

Trier temperature yesterday

Maximum temperature yesterday: 50 °F (at 6:00 PM)
Minimum temperature yesterday: 39 °F (at 8:00 AM)
Average temperature yesterday: 45 °F

Past Weeks' High & Low Weather Summary

 TemperatureHumidityPressure
High73 °F (Apr 3, 4:00 PM)100% (Apr 6, 7:00 AM)30.43 "Hg (Apr 6, 7:00 AM)
Low34 °F (Apr 16, 6:00 AM)32% (Apr 1, 5:00 PM)29.62 "Hg (Apr 3, 5:00 PM)
Average54 °F67%30.03 "Hg
* Reported Apr 1 12:00 Noon — Apr 16 12:00 Noon, Trier, Weather by CustomWeather, © 2014

Note: Actual official high and low records may vary slightly from our data, if they occured in-between our weather recording intervals... More about our weather records

Advertising

Historic Weather Conditions — Data for Previous 24 hours

 ConditionsComfort  
Time TempWeatherWind HumidityBarometerVisibility
12:00 PM
Apr 16
51 °FPassing clouds.3 mph48%30.40 "Hg25 mi
11:00 AM48 °FPassing clouds.3 mph63%30.41 "Hg19 mi
10:00 AM44 °FPassing clouds.3 mph71%30.42 "Hg19 mi
9:00 AM39 °FPassing clouds.5 mph77%30.43 "Hg19 mi
8:00 AM35 °FPassing clouds.3 mph90%30.43 "Hg16 mi
7:00 AM35 °FPassing clouds.3 mph90%30.42 "Hg12 mi
6:00 AM34 °FPassing clouds.3 mph91%30.41 "Hg16 mi
5:00 AM35 °FPassing clouds.2 mph89%30.41 "Hg16 mi
4:00 AM37 °FPassing clouds.3 mph80%30.39 "Hg19 mi
3:00 AM39 °FOvercast.2 mph77%30.38 "Hg19 mi
12:00 AM42 °FOvercast.3 mph68%30.37 "Hg22 mi
11:00 PM
Apr 15
41 °FOvercast.1 mph69%30.36 "Hg19 mi
10:00 PM42 °FPassing clouds.2 mph65%30.34 "Hg22 mi
9:00 PM44 °FPassing clouds.3 mph59%30.33 "Hg28 mi
8:00 PM47 °FOvercast.5 mph52%30.31 "Hg28 mi
7:00 PM47 °FPassing clouds.5 mph48%30.31 "Hg37 mi
6:00 PM50 °FOvercast.5 mph46%30.31 "Hg25 mi
5:00 PM50 °FPartly sunny.3 mph44%30.32 "Hg31 mi
4:00 PM48 °FOvercast.5 mph43%30.32 "Hg31 mi
3:00 PM49 °FOvercast.2 mph44%30.32 "Hg31 mi
2:00 PM49 °FPartly sunny.5 mph43%30.32 "Hg31 mi
1:00 PM48 °FPartly sunny.3 mph47%30.33 "Hg28 mi
Weather by CustomWeather, © 2014

See weather overview